DW3560 Weather Reports


time (UTC)temp
F
wind
direction
speed
knots
gust
knots
rain 1hr
in
rain 24hr
in
rain mn
in
humidity
%
barometer
mb
20260503055023 52 242 0.0 3.5 0.00 0.00 0.00 88 1013.2
20260503054502 52 227 0.0 0.9 0.00 0.00 0.00 88 1013.2
20260503054002 52 299 0.0 1.7 0.00 0.00 0.00 88 1013.2
20260503053502 52 237 0.9 5.2 0.00 0.00 0.00 88 1013.2
20260503053024 52 232 0.9 5.2 0.00 0.00 0.00 87 1013.2
20260503052502 52 237 0.0 3.5 0.00 0.00 0.00 87 1013.2
20260503052002 52 215 0.0 2.6 0.00 0.00 0.00 87 1013.2
20260503051526 52 211 0.0 2.6 0.00 0.00 0.00 87 1013.2
20260503051002 52 183 0.0 3.5 0.00 0.00 0.00 88 1013.2
20260503050503 52 177 0.0 3.5 0.00 0.00 0.00 88 1013.2
20260503050006 52 199 0.0 2.6 0.00 0.00 0.00 88 1013.2
20260503045502 52 229 0.0 3.5 0.00 0.00 0.00 88 1013.2
20260503045002 52 235 0.0 3.5 0.00 0.00 0.00 87 1013.2
20260503044502 52 249 0.9 4.3 0.00 0.00 0.00 88 1013.2
20260503044002 52 259 0.0 4.3 0.00 0.00 0.00 88 1013.2
20260503043502 52 259 0.0 2.6 0.00 0.00 0.00 88 1013.2
20260503043002 52 304 0.0 2.6 0.00 0.00 0.00 87 1013.2
20260503042523 52 265 0.0 2.6 0.00 0.00 0.00 87 1013.2
20260503042023 52 252 0.0 1.7 0.00 0.00 0.00 87 1013.2
20260503041502 52 283 0.0 4.3 0.00 0.00 0.00 87 1013.2
20260503041002 52 276 0.0 4.3 0.00 0.00 0.00 87 1013.2
20260503040523 52 258 0.0 4.3 0.00 0.00 0.00 87 1013.2
20260503040002 52 273 0.0 4.3 0.00 0.00 0.00 87 1013.2
20260503035523 52 260 0.0 4.3 0.00 0.00 0.00 87 1013.2
20260503035002 52 290 0.0 2.6 0.00 0.00 0.00 87 1013.2
20260503034503 52 288 0.0 2.6 0.00 0.00 0.00 87 1013.2
20260503034002 52 275 0.0 1.7 0.00 0.00 0.00 87 1013.2
20260503033502 52 257 0.0 1.7 0.00 0.00 0.00 87 1013.2
20260503033002 52 208 0.0 1.7 0.00 0.00 0.00 86 1013.2
20260503032523 52 267 0.0 6.1 0.00 0.00 0.00 86 1013.2
20260503032002 52 274 0.9 6.1 0.00 0.00 0.00 86 1013.2
20260503031502 52 266 0.9 6.1 0.00 0.00 0.00 86 1013.2
20260503031002 52 290 0.9 6.1 0.00 0.00 0.00 85 1013.2
20260503030503 52 341 0.0 3.5 0.00 0.00 0.00 85 1013.2
20260503030024 52 349 0.0 3.5 0.00 0.00 0.00 85 1013.2
20260503025524 52 342 0.0 2.6 0.00 0.00 0.00 85 1013.2
20260503025002 53 343 0.0 3.5 0.00 0.00 0.00 85 1013.2
20260503024502 53 336 0.9 3.5 0.00 0.00 0.00 85 1013.2
20260503024002 53 328 0.9 3.5 0.00 0.00 0.00 84 1013.2
20260503023502 53 313 0.0 2.6 0.00 0.00 0.00 84 1013.2
20260503023002 53 296 0.0 2.6 0.00 0.00 0.00 84 1013.2
20260503022502 53 305 0.0 2.6 0.00 0.00 0.00 84 1013.2
20260503022002 53 310 0.0 2.6 0.00 0.00 0.00 83 1013.2
20260503021502 54 312 0.0 2.6 0.00 0.00 0.00 83 1013.2
20260503021002 54 323 0.0 2.6 0.00 0.00 0.00 83 1013.2
20260503020502 54 347 0.9 5.2 0.00 0.00 0.00 83 1013.2
20260503020002 54 356 0.9 5.2 0.00 0.00 0.00 83 1013.2
20260503015502 54 342 0.9 3.5 0.00 0.00 0.00 82 1013.2
20260503015002 54 317 0.9 4.3 0.00 0.00 0.00 82 1013.2
20260503014502 55 325 0.9 4.3 0.00 0.00 0.00 82 1013.2
20260503014002 55 10 0.9 3.5 0.00 0.00 0.00 82 1013.2
20260503013502 55 6 0.9 4.3 0.00 0.00 0.00 82 1013.2
20260503013002 55 308 0.9 4.3 0.00 0.00 0.00 81 1013.2
20260503012502 55 235 0.9 4.3 0.00 0.00 0.00 81 1013.2
20260503012002 55 260 0.9 4.3 0.00 0.00 0.00 81 1013.2
20260503011502 56 298 0.9 7.8 0.00 0.00 0.00 81 1013.2
20260503011002 56 322 0.9 7.8 0.00 0.00 0.00 81 1013.2
20260503010502 56 338 0.9 4.3 0.00 0.00 0.00 81 1013.2
20260503010002 56 327 0.9 4.3 0.00 0.00 0.00 80 1013.2
20260503005502 56 290 0.9 3.5 0.00 0.00 0.00 80 1013.2
20260503005002 57 323 0.9 5.2 0.00 0.00 0.00 81 1013.2
20260503004502 56 295 0.9 5.2 0.00 0.00 0.00 80 1013.2
20260503004023 57 309 0.9 7.0 0.00 0.00 0.00 80 1013.2
20260503003523 57 342 0.9 7.0 0.00 0.00 0.00 79 1013.2
20260503003023 57 330 0.9 3.5 0.00 0.00 0.00 79 1013.2
20260503002502 57 304 0.9 4.3 0.00 0.00 0.00 79 1013.2
20260503002002 57 331 0.9 4.3 0.00 0.00 0.00 79 1013.2
20260503001523 58 312 0.9 6.1 0.00 0.00 0.00 79 1013.2
20260503001002 58 312 1.7 8.7 0.00 0.00 0.00 79 1013.2
20260503000502 58 334 1.7 8.7 0.00 0.00 0.00 79 1013.2
20260503000023 58 342 0.9 5.2 0.00 0.00 0.00 80 1013.2
20260502235502 57 338 0.9 7.0 0.00 0.00 0.00 79 1013.2
20260502235002 57 331 0.9 7.0 0.00 0.00 0.00 78 1013.2
20260502234502 58 329 0.9 5.2 0.00 0.00 0.00 78 1013.2
20260502234002 58 338 1.7 6.1 0.00 0.00 0.00 78 1013.2
20260502233523 58 345 1.7 6.1 0.00 0.00 0.00 77 1013.2
20260502233002 59 348 0.9 6.1 0.00 0.00 0.00 77 1013.2
20260502232502 60 351 0.9 6.1 0.00 0.00 0.00 76 1013.2
20260502232023 60 345 0.9 2.6 0.00 0.00 0.00 75 1013.2
20260502231523 60 334 0.9 4.3 0.00 0.00 0.00 76 1013.2
20260502231002 60 324 0.9 4.3 0.00 0.00 0.00 76 1013.2
20260502230502 60 281 0.9 3.5 0.00 0.00 0.00 76 1013.2
20260502230023 60 296 0.9 3.5 0.00 0.00 0.00 76 1013.2
20260502225502 60 354 1.7 7.0 0.00 0.00 0.00 75 1013.2
20260502225002 60 341 1.7 7.0 0.00 0.00 0.00 75 1013.2
20260502224502 60 296 0.9 3.5 0.00 0.00 0.00 76 1013.2
20260502224002 60 241 0.9 5.2 0.00 0.00 0.00 77 1013.2
20260502223523 59 270 0.9 5.2 0.00 0.00 0.00 77 1013.2
20260502223002 59 326 0.9 4.3 0.00 0.00 0.00 78 1013.2
20260502222523 59 246 0.9 3.5 0.00 0.00 0.00 78 1013.2
20260502222002 59 253 0.9 7.8 0.00 0.00 0.00 79 1013.2
20260502221502 58 279 0.9 7.8 0.00 0.00 0.00 79 1013.2
20260502221002 58 234 0.9 7.8 0.00 0.00 0.00 79 1013.2
20260502220502 58 234 0.9 7.8 0.00 0.00 0.00 78 1013.2
20260502220002 58 266 0.9 4.3 0.00 0.00 0.00 80 1013.2
20260502215502 58 226 0.9 4.3 0.00 0.00 0.00 80 1013.2
20260502214502 58 234 0.9 5.2 0.00 0.00 0.00 81 1013.2
20260502214002 57 245 0.9 5.2 0.00 0.00 0.00 81 1013.2
20260502213502 57 258 0.9 5.2 0.00 0.00 0.00 82 1013.2
20260502213002 57 228 0.9 5.2 0.00 0.00 0.00 81 1013.2
20260502212502 57 210 0.9 3.5 0.00 0.00 0.00 82 1013.2
20260502212002 57 238 0.9 3.5 0.00 0.00 0.00 81 1013.2
20260502211502 58 270 0.9 3.5 0.00 0.00 0.00 82 1013.2
20260502183002 54 239 0.9 4.3 0.00 0.00 0.00 92 1012.3
20260502182523 54 245 0.9 5.2 0.00 0.00 0.00 92 1012.3
20260502182002 54 248 0.9 6.1 0.00 0.00 0.00 92 1012.3
20260502181502 54 237 0.9 5.2 0.00 0.00 0.00 92 1012.3
20260502181002 54 234 0.9 3.5 0.00 0.00 0.00 92 1012.3
20260502180502 54 231 1.7 7.0 0.00 0.00 0.00 92 1012.3
20260502170502 52 233 0.9 3.5 0.00 0.00 0.00 93 1012.3
20260502164002 52 241 0.9 5.2 0.00 0.00 0.00 93 1012.3
20260502163502 52 237 0.9 4.3 0.00 0.00 0.00 93 1012.3
20260502163002 52 236 0.9 4.3 0.00 0.00 0.00 94 1012.3
20260502162523 52 235 0.9 3.5 0.00 0.00 0.00 93 1012.3
20260502162023 52 231 0.9 3.5 0.00 0.00 0.00 93 1012.3
20260502161502 52 229 0.9 4.3 0.00 0.00 0.00 94 1012.3
20260502161024 52 233 0.9 4.3 0.00 0.00 0.00 94 1012.3
20260502160503 52 239 0.9 6.1 0.00 0.00 0.00 94 1012.3
20260502152002 52 230 0.9 4.3 0.00 0.00 0.00 94 1012.3
20260502151502 52 236 0.9 4.3 0.00 0.00 0.00 94 1012.3
20260502151023 52 233 0.9 4.3 0.00 0.00 0.00 94 1012.3
20260502150524 51 233 0.9 3.5 0.00 0.00 0.00 94 1012.3
20260502130502 51 242 0.9 4.3 0.00 0.00 0.00 93 1012.3
20260502123503 51 233 0.9 4.3 0.00 0.00 0.00 93 1012.3
20260502123002 51 235 0.9 2.6 0.00 0.00 0.00 93 1012.3
20260502122502 51 237 0.0 2.6 0.00 0.00 0.00 93 1012.3
20260502122003 51 237 0.0 2.6 0.00 0.00 0.00 93 1012.3
20260502121502 51 242 0.9 3.5 0.00 0.00 0.00 93 1012.3
20260502121002 51 243 0.9 3.5 0.00 0.00 0.00 93 1012.3
20260502120502 51 245 0.0 3.5 0.00 0.00 0.00 93 1012.3
20260502115502 51 247 0.0 1.7 0.00 0.00 0.00 93 1012.3
20260502115002 51 245 0.0 2.6 0.00 0.00 0.00 93 1012.3
20260502114502 51 242 0.0 2.6 0.00 0.00 0.00 93 1012.3
20260502114023 51 234 0.0 1.7 0.00 0.00 0.00 93 1012.3
20260502113502 51 232 0.0 1.7 0.00 0.00 0.00 93 1012.3
20260502113002 52 232 0.0 2.6 0.00 0.00 0.00 93 1012.3
20260502112502 51 232 0.0 2.6 0.00 0.00 0.00 93 1012.3
20260502112023 51 232 0.0 0.9 0.00 0.00 0.00 93 1012.3
20260502111502 51 234 0.0 2.6 0.00 0.00 0.00 93 1012.3
20260502111023 51 236 0.0 2.6 0.00 0.00 0.00 93 1012.3
20260502110503 51 242 0.0 2.6 0.00 0.00 0.00 93 1012.3
20260502110002 51 238 0.0 0.9 0.00 0.00 0.00 93 1013.6
20260502105502 51 238 0.0 2.6 0.00 0.00 0.00 93 1013.6
20260502105002 51 238 0.0 2.6 0.00 0.00 0.00 93 1013.6
20260502104502 51 238 0.0 2.6 0.00 0.00 0.00 93 1013.6
20260502104023 51 241 0.0 2.6 0.00 0.00 0.00 93 1013.6
20260502103503 51 242 0.0 2.6 0.00 0.00 0.00 93 1013.6
20260502103002 51 241 0.0 2.6 0.00 0.00 0.00 93 1013.6
20260502102502 52 235 0.0 1.7 0.00 0.00 0.00 93 1013.6
20260502102002 52 235 0.0 1.7 0.00 0.00 0.00 92 1013.6
20260502101502 52 233 0.0 2.6 0.00 0.00 0.00 93 1013.6
20260502101023 52 233 0.0 2.6 0.00 0.00 0.00 93 1013.6
20260502100502 52 233 0.0 1.7 0.00 0.00 0.00 92 1013.6
20260502091502 52 236 0.0 2.6 0.00 0.00 0.00 92 1013.6
20260502091002 52 234 0.0 3.5 0.00 0.00 0.00 92 1013.6
20260502090503 52 231 0.0 4.3 0.00 0.00 0.00 92 1013.6
20260502071503 52 223 0.9 5.2 0.00 0.00 0.00 91 1013.6
20260502071002 52 226 0.0 1.7 0.00 0.00 0.00 91 1013.6
20260502070502 52 240 0.9 3.5 0.00 0.00 0.00 91 1013.6
20260502070026 52 243 0.0 3.5 0.00 0.00 0.00 91 1013.6
20260502065524 52 234 0.0 3.5 0.00 0.00 0.00 91 1013.6
20260502065002 52 228 0.0 3.5 0.00 0.00 0.00 91 1013.6
20260502064502 52 227 0.0 3.5 0.00 0.00 0.00 91 1013.6
20260502064003 52 230 0.0 3.5 0.00 0.00 0.00 91 1013.6
20260502063502 52 235 0.9 3.5 0.00 0.00 0.00 91 1013.6
20260502063024 52 233 0.9 6.1 0.00 0.00 0.00 90 1013.6
20260502062503 52 239 0.9 6.1 0.00 0.00 0.00 90 1013.6
20260502062003 52 236 0.9 6.1 0.00 0.00 0.00 90 1013.6